Time,TemperatureF,DewpointF,PressureIn,WindDirection,WindDirectionDegrees,WindSpeedMPH,WindSpeedGustMPH,Humidity,HourlyPrecipIn,Conditions,Clouds,dailyrainin,SoftwareType,DateUTC
2013-06-05 00:09:00,68.0,64.3,29.87,NNW,337,0.0,-999.0,88,-99.99,,,0.00,Acu-Link.com,2013-06-05 04:09:00,
2013-06-05 00:24:00,68.0,64.3,29.87,North,0,1.1,-999.0,88,-99.99,,,0.00,Acu-Link.com,2013-06-05 04:24:00,
2013-06-05 00:40:00,68.0,64.3,29.87,SW,225,1.6,-999.0,88,-99.99,,,0.00,Acu-Link.com,2013-06-05 04:40:00,
2013-06-05 00:55:00,68.0,64.0,29.87,NNW,337,1.6,-999.0,87,-99.99,,,0.00,Acu-Link.com,2013-06-05 04:55:00,
2013-06-05 01:10:00,68.0,64.0,29.87,North,0,0.0,-999.0,87,-99.99,,,0.00,Acu-Link.com,2013-06-05 05:10:00,
2013-06-05 01:26:00,68.0,64.0,29.87,NNE,22,0.0,-999.0,87,-99.99,,,0.00,Acu-Link.com,2013-06-05 05:26:00,
2013-06-05 02:12:00,68.0,64.3,29.86,NNW,337,1.1,-999.0,88,-99.99,,,0.00,Acu-Link.com,2013-06-05 06:12:00,
2013-06-05 02:27:00,68.0,64.3,29.86,North,0,1.1,-999.0,88,-99.99,,,0.00,Acu-Link.com,2013-06-05 06:27:00,
2013-06-05 02:42:00,68.0,64.3,29.86,North,0,1.1,-999.0,88,-99.99,,,0.00,Acu-Link.com,2013-06-05 06:42:00,
2013-06-05 02:57:00,66.2,62.5,29.86,North,0,0.0,-999.0,88,-99.99,,,0.00,Acu-Link.com,2013-06-05 06:57:00,
2013-06-05 03:12:00,68.0,64.6,29.85,NNW,337,0.0,-999.0,89,-99.99,,,0.00,Acu-Link.com,2013-06-05 07:12:00,
2013-06-05 03:27:00,68.0,64.6,29.84,ESE,112,0.0,-999.0,89,-99.99,,,0.00,Acu-Link.com,2013-06-05 07:27:00,
2013-06-05 03:43:00,68.0,64.6,29.84,NNE,22,1.1,-999.0,89,-99.99,,,0.00,Acu-Link.com,2013-06-05 07:43:00,
2013-06-05 03:58:00,68.0,64.6,29.84,North,0,0.0,-999.0,89,-99.99,,,0.00,Acu-Link.com,2013-06-05 07:58:00,
2013-06-05 04:13:00,68.0,64.6,29.85,WNW,292,0.0,-999.0,89,-99.99,,,0.00,Acu-Link.com,2013-06-05 08:13:00,
2013-06-05 04:28:00,68.0,64.6,29.85,South,180,0.0,-999.0,89,-99.99,,,0.00,Acu-Link.com,2013-06-05 08:28:00,
2013-06-05 04:43:00,68.0,64.6,29.85,WNW,292,0.0,-999.0,89,-99.99,,,0.00,Acu-Link.com,2013-06-05 08:43:00,
2013-06-05 04:58:00,68.0,64.6,29.84,SSW,202,0.0,-999.0,89,-99.99,,,0.00,Acu-Link.com,2013-06-05 08:58:00,
2013-06-05 05:13:00,68.0,64.3,29.85,North,0,2.0,-999.0,88,-99.99,,,0.00,Acu-Link.com,2013-06-05 09:13:00,
2013-06-05 05:29:00,68.0,64.3,29.85,North,0,1.6,-999.0,88,-99.99,,,0.00,Acu-Link.com,2013-06-05 09:29:00,
2013-06-05 05:44:00,68.0,64.3,29.85,North,0,2.0,-999.0,88,-99.99,,,0.00,Acu-Link.com,2013-06-05 09:44:00,
2013-06-05 05:59:00,66.2,63.2,29.86,NNW,337,1.6,-999.0,90,-99.99,,,0.01,Acu-Link.com,2013-06-05 09:59:00,
2013-06-05 06:15:00,66.2,64.1,29.86,SE,135,1.6,-999.0,93,-99.99,,,0.10,Acu-Link.com,2013-06-05 10:15:00,
2013-06-05 06:30:00,66.2,64.1,29.87,WSW,247,0.0,-999.0,93,-99.99,,,0.10,Acu-Link.com,2013-06-05 10:30:00,
2013-06-05 06:45:00,66.2,64.1,29.87,West,270,1.1,-999.0,93,-99.99,,,0.11,Acu-Link.com,2013-06-05 10:45:00,
2013-06-05 07:00:00,66.2,64.1,29.88,WNW,292,0.0,-999.0,93,-99.99,,,0.11,Acu-Link.com,2013-06-05 11:00:00,
2013-06-05 07:15:00,68.0,66.2,29.89,North,0,0.0,-999.0,94,-99.99,,,0.14,Acu-Link.com,2013-06-05 11:15:00,
2013-06-05 07:31:00,68.0,66.2,29.89,NNW,337,1.1,-999.0,94,-99.99,,,0.14,Acu-Link.com,2013-06-05 11:31:00,
2013-06-05 07:46:00,68.0,66.2,29.89,NNE,22,0.0,-999.0,94,-99.99,,,0.14,Acu-Link.com,2013-06-05 11:46:00,
2013-06-05 08:01:00,68.0,66.2,29.89,North,0,0.0,-999.0,94,-99.99,,,0.14,Acu-Link.com,2013-06-05 12:01:00,
2013-06-05 08:17:00,68.0,66.2,29.89,WNW,292,0.0,-999.0,94,-99.99,,,0.14,Acu-Link.com,2013-06-05 12:17:00,
2013-06-05 08:32:00,68.0,66.2,29.89,WSW,247,0.0,-999.0,94,-99.99,,,0.14,Acu-Link.com,2013-06-05 12:32:00,
2013-06-05 08:47:00,68.0,66.2,29.89,NW,315,1.1,-999.0,94,-99.99,,,0.14,Acu-Link.com,2013-06-05 12:47:00,
2013-06-05 09:03:00,69.8,67.7,29.89,WNW,292,1.6,-999.0,93,-99.99,,,0.14,Acu-Link.com,2013-06-05 13:03:00,
2013-06-05 09:18:00,69.8,67.4,29.89,West,270,2.0,-999.0,92,-99.99,,,0.14,Acu-Link.com,2013-06-05 13:18:00,
2013-06-05 09:33:00,69.8,67.4,29.90,North,0,0.0,-999.0,92,-99.99,,,0.14,Acu-Link.com,2013-06-05 13:33:00,
2013-06-05 09:48:00,69.8,67.0,29.90,NE,45,1.1,-999.0,91,-99.99,,,0.14,Acu-Link.com,2013-06-05 13:48:00,
2013-06-05 10:04:00,69.8,67.0,29.90,NNW,337,2.0,-999.0,91,-99.99,,,0.14,Acu-Link.com,2013-06-05 14:04:00,
2013-06-05 10:19:00,69.8,67.0,29.90,NNW,337,2.0,-999.0,91,-99.99,,,0.14,Acu-Link.com,2013-06-05 14:19:00,
2013-06-05 10:34:00,71.6,68.2,29.89,SE,135,0.0,-999.0,89,-99.99,,,0.14,Acu-Link.com,2013-06-05 14:34:00,
2013-06-05 10:49:00,71.6,67.9,29.90,East,90,1.6,-999.0,88,-99.99,,,0.14,Acu-Link.com,2013-06-05 14:49:00,
2013-06-05 11:04:00,71.6,67.9,29.90,WNW,292,1.6,-999.0,88,-99.99,,,0.14,Acu-Link.com,2013-06-05 15:04:00,
2013-06-05 11:20:00,69.8,66.1,29.89,North,0,2.0,-999.0,88,-99.99,,,0.14,Acu-Link.com,2013-06-05 15:20:00,
2013-06-05 11:35:00,71.6,67.5,29.89,West,270,2.7,-999.0,87,-99.99,,,0.14,Acu-Link.com,2013-06-05 15:35:00,
2013-06-05 11:50:00,73.4,68.6,29.89,ESE,112,2.0,-999.0,85,-99.99,,,0.14,Acu-Link.com,2013-06-05 15:50:00,
2013-06-05 12:05:00,75.2,68.6,29.89,North,0,1.6,-999.0,80,-99.99,,,0.14,Acu-Link.com,2013-06-05 16:05:00,
2013-06-05 12:21:00,77.0,67.3,29.88,NNE,22,2.0,-999.0,72,-99.99,,,0.14,Acu-Link.com,2013-06-05 16:21:00,
2013-06-05 12:51:00,80.6,68.6,29.87,West,270,4.0,-999.0,67,-99.99,,,0.14,Acu-Link.com,2013-06-05 16:51:00,
2013-06-05 13:07:00,78.8,68.2,29.87,SSE,157,2.0,-999.0,70,-99.99,,,0.14,Acu-Link.com,2013-06-05 17:07:00,
2013-06-05 13:22:00,78.8,69.0,29.87,East,90,2.7,-999.0,72,-99.99,,,0.14,Acu-Link.com,2013-06-05 17:22:00,
2013-06-05 13:37:00,78.8,69.0,29.87,West,270,6.7,-999.0,72,-99.99,,,0.14,Acu-Link.com,2013-06-05 17:37:00,
2013-06-05 13:52:00,77.0,67.7,29.86,WNW,292,4.7,-999.0,73,-99.99,,,0.14,Acu-Link.com,2013-06-05 17:52:00,
2013-06-05 14:07:00,77.0,67.7,29.86,North,0,1.6,-999.0,73,-99.99,,,0.14,Acu-Link.com,2013-06-05 18:07:00,
2013-06-05 14:23:00,77.0,68.1,29.86,SE,135,1.6,-999.0,74,-99.99,,,0.14,Acu-Link.com,2013-06-05 18:23:00,
2013-06-05 14:38:00,77.0,68.5,29.85,WNW,292,2.7,-999.0,75,-99.99,,,0.14,Acu-Link.com,2013-06-05 18:38:00,
2013-06-05 14:54:00,77.0,68.1,29.85,East,90,1.1,-999.0,74,-99.99,,,0.14,Acu-Link.com,2013-06-05 18:54:00,
2013-06-05 15:09:00,77.0,69.2,29.85,NE,45,2.0,-999.0,77,-99.99,,,0.14,Acu-Link.com,2013-06-05 19:09:00,
2013-06-05 15:24:00,77.0,68.5,29.84,WNW,292,3.1,-999.0,75,-99.99,,,0.14,Acu-Link.com,2013-06-05 19:24:00,
2013-06-05 15:40:00,78.8,69.8,29.83,ENE,67,1.6,-999.0,74,-99.99,,,0.14,Acu-Link.com,2013-06-05 19:40:00,
2013-06-05 15:55:00,77.0,68.8,29.83,NNE,22,1.6,-999.0,76,-99.99,,,0.14,Acu-Link.com,2013-06-05 19:55:00,
2013-06-05 16:10:00,77.0,69.2,29.82,WNW,292,1.6,-999.0,77,-99.99,,,0.14,Acu-Link.com,2013-06-05 20:10:00,
2013-06-05 16:25:00,78.8,70.2,29.82,NNW,337,0.0,-999.0,75,-99.99,,,0.14,Acu-Link.com,2013-06-05 20:25:00,
2013-06-05 17:11:00,78.8,69.8,29.81,NNW,337,0.0,-999.0,74,-99.99,,,0.14,Acu-Link.com,2013-06-05 21:11:00,
2013-06-05 17:27:00,78.8,69.8,29.81,WNW,292,2.7,-999.0,74,-99.99,,,0.14,Acu-Link.com,2013-06-05 21:27:00,
2013-06-05 17:57:00,78.8,69.0,29.81,NNE,22,2.7,-999.0,72,-99.99,,,0.14,Acu-Link.com,2013-06-05 21:57:00,
2013-06-05 18:12:00,77.0,68.1,29.79,East,90,1.1,-999.0,74,-99.99,,,0.14,Acu-Link.com,2013-06-05 22:12:00,
2013-06-05 18:28:00,77.0,68.8,29.78,WNW,292,2.7,-999.0,76,-99.99,,,0.14,Acu-Link.com,2013-06-05 22:28:00,
2013-06-05 18:43:00,77.0,69.2,29.78,ENE,67,2.0,-999.0,77,-99.99,,,0.14,Acu-Link.com,2013-06-05 22:43:00,
2013-06-05 18:58:00,77.0,69.2,29.78,NNW,337,4.0,-999.0,77,-99.99,,,0.14,Acu-Link.com,2013-06-05 22:58:00,
2013-06-05 19:13:00,77.0,69.6,29.77,NE,45,0.0,-999.0,78,-99.99,,,0.14,Acu-Link.com,2013-06-05 23:13:00,
2013-06-05 19:28:00,75.2,68.6,29.78,NNE,22,1.1,-999.0,80,-99.99,,,0.14,Acu-Link.com,2013-06-05 23:28:00,
2013-06-05 19:43:00,73.4,67.2,29.78,NNW,337,1.6,-999.0,81,-99.99,,,0.14,Acu-Link.com,2013-06-05 23:43:00,
2013-06-05 19:59:00,73.4,67.9,29.79,NNE,22,2.0,-999.0,83,-99.99,,,0.14,Acu-Link.com,2013-06-05 23:59:00,
2013-06-05 20:14:00,71.6,67.2,29.79,SW,225,2.0,-999.0,86,-99.99,,,0.14,Acu-Link.com,2013-06-06 00:14:00,
2013-06-05 20:29:00,71.6,67.5,29.80,East,90,0.0,-999.0,87,-99.99,,,0.16,Acu-Link.com,2013-06-06 00:29:00,
2013-06-05 20:45:00,71.6,68.2,29.80,NNE,22,0.0,-999.0,89,-99.99,,,0.16,Acu-Link.com,2013-06-06 00:45:00,
2013-06-05 21:00:00,71.6,68.5,29.79,NNE,22,1.6,-999.0,90,-99.99,,,0.16,Acu-Link.com,2013-06-06 01:00:00,
2013-06-05 21:15:00,69.8,67.0,29.79,WNW,292,0.0,-999.0,91,-99.99,,,0.16,Acu-Link.com,2013-06-06 01:15:00,
2013-06-05 21:31:00,69.8,67.0,29.80,North,0,1.1,-999.0,91,-99.99,,,0.16,Acu-Link.com,2013-06-06 01:31:00,
2013-06-05 21:46:00,69.8,67.0,29.80,NNW,337,1.6,-999.0,91,-99.99,,,0.16,Acu-Link.com,2013-06-06 01:46:00,
2013-06-05 22:01:00,69.8,67.0,29.80,NNE,22,1.6,-999.0,91,-99.99,,,0.16,Acu-Link.com,2013-06-06 02:01:00,
2013-06-05 22:17:00,69.8,67.4,29.80,NW,315,0.0,-999.0,92,-99.99,,,0.16,Acu-Link.com,2013-06-06 02:17:00,
2013-06-05 22:32:00,69.8,67.4,29.80,ESE,112,0.0,-999.0,92,-99.99,,,0.16,Acu-Link.com,2013-06-06 02:32:00,
2013-06-05 22:47:00,69.8,67.4,29.80,SSW,202,0.0,-999.0,92,-99.99,,,0.16,Acu-Link.com,2013-06-06 02:47:00,
2013-06-05 23:02:00,69.8,67.7,29.80,ENE,67,0.0,-999.0,93,-99.99,,,0.16,Acu-Link.com,2013-06-06 03:02:00,
2013-06-05 23:18:00,69.8,67.7,29.80,NE,45,1.1,-999.0,93,-99.99,,,0.17,Acu-Link.com,2013-06-06 03:18:00,
2013-06-05 23:33:00,69.8,68.0,29.79,North,0,0.0,-999.0,94,-99.99,,,0.17,Acu-Link.com,2013-06-06 03:33:00,
2013-06-05 23:48:00,69.8,68.0,29.78,NNE,22,0.0,-999.0,94,-99.99,,,0.17,Acu-Link.com,2013-06-06 03:48:00,